Volver al catálogo

CZ-6A DEB

ActivoPO
NORAD 61153·DEBRIS·🇨🇳 China

Lanzado Aug 6, 2024 desde Taiyuan Satellite Launch Center

Loading…

Próximos Pases (próximas 24 horas)

TLE

ActualizadoSource: Space-Track

Época: Sep 14, 2026, 11:30 UTC

1 61153U 24140QX  26257.47934566  .00000778  00000-0  33965-3 0  9994
2 61153  88.9978 264.5344 0040064 270.0119  89.6482 14.22554337107077

Sigue CZ-6A DEB en tiempo real con AllMySat

Download on the App Store